Temperature
12 12 12 12 12 12 11 11 11 11 11 11 11 10 10 9 9 8 8 7 7 6 6 6 6 6 6 5 5 5 5 5 4 4 4 4 4 3 3 3 3 3 3
11 11 11 11 11 11 11 11 10 10 10 10 10 9 9 8 8 7 6 6 5 5 5 5 5 5 5 5 5 5 4 4 4 4 3 3 3 3 3 3 3 3 2
9 9 10 10 10 10 10 10 10 10 9 9 9 8 8 7 6 5 5 5 4 4 4 4 4 4 4 4 4 4 4 4 4 3 3 3 2 2 2 2 2 2 2
9 9 9 9 9 9 9 9 9 9 9 8 8 7 6 5 5 4 4 4 4 4 4 3 3 3 3 3 3 3 3 3 3 3 2 2 2 2 1 1 1 1 1
8 8 8 8 8 9 9 9 8 8 8 7 6 5 4 4 4 3 3 3 3 3 3 3 3 3 3 3 2 3 2 2 2 2 2 1 1 1 1 0 0 0 1
8 8 8 8 8 8 8 8 8 7 7 6 5 4 3 3 2 2 2 2 2 2 2 2 2 2 2 2 2 2 2 2 2 1 1 1 1 0 -0 -0 -0 -0 -0
8 8 8 8 8 8 8 7 7 6 5 4 3 3 2 2 2 1 2 2 2 2 1 1 1 1 1 1 1 1 1 1 1 1 1 0 -0 -0 -1 -1 -1 -1 -1
8 8 8 7 7 7 7 7 6 5 4 3 2 2 1 1 1 1 1 1 1 1 1 1 1 1 1 1 1 1 1 1 1 1 0 -0 -1 -1 -1 -1 -1 -1 -1
8 8 7 7 7 7 6 6 5 4 3 2 1 1 1 0 0 0 1 1 1 0 1 1 0 0 0 0 0 1 1 0 0 -0 -0 -1 -1 -1 -1 -1 -1 -1 -1
7 7 7 6 6 6 6 5 4 3 2 1 1 0 0 0 0 0 0 0 0 0 0 0 0 0 0 0 0 0 -0 -0 -0 -1 -1 -1 -1 -1 -1 -2 -2 -2 -2
6 6 6 6 5 5 5 4 3 2 1 1 0 -0 -0 -0 -0 -0 0 0 0 0 0 0 0 0 -0 -0 -0 -0 -0 -1 -1 -1 -1 -1 -2 -2 -2 -2 -2 -2 -2
5 5 5 5 4 4 4 3 2 2 1 0 -0 -0 -0 -0 -0 -0 -0 0 0 0 0 -0 -0 -0 -0 -0 -0 -1 -1 -1 -1 -1 -1 -2 -2 -2 -2 -2 -3 -3 -3
4 4 4 4 4 3 3 3 2 1 1 0 -0 -0 -0 -0 -0 -0 -0 -0 -0 -0 -0 -0 -1 -1 -1 -1 -1 -1 -1 -1 -1 -1 -2 -2 -2 -3 -3 -3 -3 -3 -3
3 3 3 3 3 3 3 2 2 1 1 0 0 0 -0 -0 0 0 0 0 -0 -0 -0 -1 -1 -1 -1 -1 -1 -1 -1 -1 -1 -1 -2 -2 -2 -3 -3 -3 -3 -4 -4
2 2 2 2 2 2 2 2 2 2 1 1 0 0 0 0 0 0 0 0 -0 -0 -1 -1 -1 -1 -1 -1 -1 -1 -1 -1 -1 -2 -2 -2 -3 -3 -3 -4 -4 -4 -4
2 2 2 2 2 2 2 2 1 1 1 0 0 0 0 0 -0 -0 -0 -0 -1 -1 -1 -0 -0 -1 -1 -1 -1 -1 -1 -1 -2 -2 -2 -3 -3 -3 -4 -4 -4 -4 -4
1 2 2 2 2 2 2 1 1 1 1 0 0 0 0 0 -0 -0 -0 -1 -1 -1 -1 -0 -0 -1 -1 -1 -1 -1 -1 -2 -2 -2 -3 -3 -3 -4 -4 -4 -4 -4 -4
1 1 1 1 1 1 1 1 1 1 0 1 1 0 0 0 -0 -0 -1 -1 -1 -1 -0 -0 -0 -1 -1 -1 -1 -2 -2 -2 -2 -2 -3 -3 -4 -4 -4 -4 -4 -5 -5
-0 0 1 1 1 1 1 0 0 0 0 1 1 0 0 0 -0 -0 -1 -1 -1 -1 -0 -0 -1 -1 -1 -1 -2 -2 -2 -2 -3 -3 -3 -4 -4 -4 -4 -4 -5 -5 -5
-1 -0 -0 0 0 0 0 0 0 -0 0 0 0 0 0 -0 -0 -0 -0 -0 -0 -0 -0 -0 -1 -1 -1 -2 -2 -2 -3 -3 -3 -3 -3 -4 -4 -4 -4 -5 -5 -5 -5
-1 -1 -1 -1 -0 -0 -0 -0 -0 -0 0 0 0 0 0 0 0 0 0 -0 -0 -0 -0 -1 -1 -1 -1 -2 -2 -3 -3 -3 -3 -4 -4 -4 -5 -5 -5 -5 -5 -6 -6
-2 -2 -1 -1 -1 -1 -0 -0 -0 -0 -0 -0 -0 -0 -0 -0 -0 0 0 0 0 -0 -0 -1 -1 -1 -1 -2 -2 -3 -3 -3 -4 -4 -4 -5 -5 -5 -5 -5 -6 -6 -6
-3 -3 -2 -2 -2 -2 -1 -1 -1 -1 -1 -0 -0 -0 -0 -0 -0 -0 -0 -0 -0 -0 -1 -1 -1 -1 -2 -2 -2 -3 -3 -3 -4 -4 -5 -5 -5 -5 -5 -6 -6 -6 -7
-4 -3 -3 -3 -2 -2 -2 -1 -1 -1 -1 -1 -1 -1 -1 -1 -1 -1 -1 -1 -1 -1 -1 -1 -1 -2 -2 -2 -3 -3 -3 -4 -4 -5 -5 -5 -5 -6 -6 -6 -6 -7 -7
-4 -4 -4 -3 -3 -3 -2 -2 -2 -1 -1 -1 -1 -1 -1 -1 -1 -1 -1 -1 -1 -1 -1 -2 -2 -2 -2 -3 -3 -3 -4 -4 -5 -5 -5 -6 -6 -6 -6 -6 -7 -7 -8
-5 -4 -4 -4 -4 -3 -3 -3 -2 -2 -2 -2 -2 -1 -1 -1 -2 -2 -2 -2 -2 -2 -2 -2 -2 -3 -3 -3 -4 -4 -4 -5 -5 -5 -6 -6 -6 -6 -7 -7 -7 -8 -8
Wind_Speed
5 6 6 5 5 6 5 5 5 4 4 3 3 3 2 1 1 1 1 1 2 2 2 3 3 2 2 2 2 2 2 1 2 2 2 2 2 2 4 6 7 8 9
5 6 6 6 6 6 6 5 5 5 4 3 3 3 2 2 1 1 2 2 2 2 3 3 3 3 3 3 3 3 2 2 2 3 2 2 2 2 2 2 4 6 7
6 7 6 6 6 6 6 6 5 5 4 3 3 3 3 2 1 1 2 3 3 3 3 4 3 4 3 3 3 2 2 2 2 3 2 2 2 2 2 2 3 4 6
7 7 7 6 6 6 6 6 5 5 5 4 3 3 3 2 2 2 3 4 4 5 4 4 4 4 4 3 2 2 2 2 2 3 2 2 2 2 2 1 1 2 3
8 8 8 7 6 6 6 6 5 5 5 5 4 4 3 3 2 3 3 4 5 5 5 4 4 5 5 4 2 2 2 2 2 2 2 2 1 1 1 0 1 1 2
9 9 8 7 7 7 6 6 6 5 5 5 5 5 4 3 4 5 4 4 5 5 5 4 3 4 5 5 6 5 4 2 2 2 2 2 2 2 1 1 1 1 2
9 9 9 9 8 7 7 7 6 6 5 5 4 5 4 4 6 6 6 5 5 5 5 4 2 3 4 4 5 6 6 5 3 4 3 3 3 3 3 2 1 1 2
9 9 9 9 9 8 7 7 6 5 5 5 5 5 5 5 7 7 8 5 5 4 4 4 4 3 3 4 3 3 3 3 3 3 4 3 3 3 3 3 2 1 1
9 10 10 10 10 9 9 8 6 5 5 4 5 6 6 5 8 8 8 4 4 4 3 4 5 4 5 6 5 3 2 1 2 5 5 4 4 5 5 3 2 2 0
9 9 9 10 10 10 9 7 5 5 5 5 5 5 6 6 9 10 9 4 4 3 3 3 6 6 6 6 5 4 4 2 1 1 2 2 2 2 2 4 4 3 1
5 6 8 9 9 9 8 6 6 6 6 6 6 5 6 7 9 11 11 5 5 4 4 4 4 9 8 7 6 5 5 4 3 2 1 1 1 1 2 3 4 4 3
5 7 8 8 8 7 8 7 7 8 8 7 6 5 5 6 9 11 14 11 9 6 5 5 5 9 8 8 5 6 7 5 3 2 2 2 2 2 2 3 4 4 4
5 6 7 8 7 8 9 9 8 8 7 7 6 6 6 5 7 14 15 14 14 7 5 9 10 11 9 6 7 7 5 4 3 3 3 3 3 3 2 2 2 2 4
6 6 6 8 8 8 8 8 8 9 8 8 8 7 6 6 6 7 7 8 11 9 6 8 11 11 8 7 6 4 3 4 4 4 3 3 2 3 3 3 2 1 1
6 6 7 8 8 9 9 9 9 9 10 10 9 8 8 8 11 15 10 8 6 6 6 3 3 3 4 4 4 4 4 4 4 4 4 4 4 3 3 3 3 2 2
6 6 6 7 7 7 8 8 12 12 15 17 14 11 10 11 12 15 18 17 16 14 9 5 6 7 7 7 6 6 5 6 5 5 5 5 4 4 4 3 3 4 4
7 6 6 7 7 8 8 8 7 10 15 17 18 18 16 14 14 15 16 17 17 16 10 7 7 8 8 7 7 6 6 6 5 6 6 6 5 5 4 4 4 4 4
7 7 7 7 7 8 8 8 7 7 7 7 12 18 18 17 16 15 15 13 10 11 8 8 9 8 8 8 7 7 6 6 5 5 6 6 6 5 5 5 5 5 5
6 6 6 6 7 7 7 7 8 8 8 6 5 8 16 17 17 17 15 9 9 10 10 10 9 9 8 8 8 7 7 7 6 6 6 7 6 6 6 6 6 8 7
7 8 7 6 6 7 7 8 8 8 8 8 8 8 7 9 9 10 12 10 10 11 10 10 9 9 9 8 8 7 7 7 7 7 7 7 7 6 7 7 6 6 6
6 7 8 7 6 7 7 8 8 8 8 8 8 9 12 9 9 10 10 11 11 11 10 10 9 9 9 8 8 8 9 8 7 7 7 7 7 6 6 6 7 7 6
6 6 6 6 6 6 7 7 8 8 9 9 7 8 15 10 8 9 9 10 10 9 8 8 8 9 9 9 9 9 9 9 8 8 7 7 7 7 6 6 6 6 6
6 6 6 6 6 8 8 7 7 8 8 8 7 7 7 8 8 8 9 8 7 7 7 7 8 8 7 9 10 9 9 9 9 8 8 7 7 7 7 7 8 7 8
6 6 6 6 6 6 6 6 6 7 7 7 7 7 7 7 7 8 7 6 6 6 6 7 8 10 11 10 11 12 13 13 12 11 10 8 8 7 7 6 7 8 8
6 6 6 6 6 6 5 5 5 6 6 6 6 6 6 6 6 6 5 5 6 6 7 7 7 8 11 12 12 12 14 15 14 13 12 8 8 8 7 7 7 7 8
6 6 6 5 5 5 5 5 5 5 5 5 5 5 5 5 5 5 5 5 5 5 6 6 8 9 10 11 13 14 15 15 16 15 12 8 8 8 8 7 8 9 9
Wind_Direction
157 144 138 135 128 125 129 138 143 142 143 148 152 153 145 112 76 151 167 148 147 123 103 105 88 70 66 45 43 52 51 91 162 122 107 117 109 82 53 43 38 31 22
161 150 146 141 139 139 143 146 143 139 140 146 143 138 126 105 76 154 153 138 145 138 116 109 99 88 73 56 60 62 56 46 131 144 124 125 112 97 68 40 33 31 21
164 158 153 155 159 158 155 152 147 145 144 139 135 139 129 114 96 116 131 123 120 114 110 112 109 105 87 71 67 66 48 46 65 122 125 112 100 87 70 34 35 20 21
169 168 171 175 172 165 159 152 152 152 152 150 145 143 136 126 119 125 128 121 110 99 95 98 99 106 110 102 83 71 71 79 85 108 114 108 95 79 85 57 18 8 8
176 181 186 176 166 161 160 157 155 157 160 155 148 148 144 142 150 146 143 139 130 115 100 92 95 107 116 117 105 85 92 105 109 113 120 116 110 99 112 51 34 342 352
189 191 179 168 167 168 165 161 160 162 160 158 164 164 165 170 173 174 164 149 143 137 127 107 94 84 93 95 94 91 102 125 144 138 142 150 150 148 128 99 85 36 310
197 188 178 174 174 174 169 168 172 173 170 171 173 169 171 177 183 183 174 148 144 147 148 147 132 115 93 81 81 67 59 71 110 149 155 165 165 176 154 138 151 184 249
197 191 183 178 178 173 173 179 180 176 179 181 181 174 171 186 189 181 162 137 139 150 158 161 152 146 158 143 122 95 66 51 83 102 139 157 167 171 171 169 174 187 303
202 196 187 180 177 177 183 185 182 178 183 184 179 174 173 183 184 173 153 139 149 163 173 176 171 177 190 166 147 142 125 48 108 134 144 160 168 172 163 126 116 92 360
210 199 184 179 180 185 186 182 178 177 182 177 179 181 179 186 192 186 172 159 168 182 194 200 195 197 202 177 162 165 177 200 166 114 90 82 66 77 132 149 151 143 169
203 184 181 182 183 180 176 174 175 176 175 180 183 188 191 199 205 201 191 178 184 189 200 208 221 212 209 202 186 184 202 185 174 171 177 172 116 121 124 145 159 154 168
190 186 185 181 178 175 174 180 182 182 186 190 193 200 209 211 215 216 209 205 199 191 202 205 216 218 215 216 204 207 211 179 159 174 191 200 199 206 205 192 192 195 204
196 195 187 180 180 176 181 187 190 193 198 198 200 209 214 211 219 222 222 218 213 202 206 210 214 219 218 220 224 223 209 172 176 198 211 215 211 204 184 191 215 223 245
208 203 192 188 189 187 190 193 198 201 203 202 206 214 214 211 214 218 219 225 221 212 205 216 216 219 211 210 228 233 197 189 196 207 213 208 179 174 191 191 196 194 279
218 210 203 200 197 200 203 206 206 209 207 205 209 207 205 217 221 212 205 209 202 196 175 181 189 195 204 206 216 221 214 213 218 202 201 201 202 199 207 193 190 184 202
228 218 211 206 204 204 206 215 218 216 220 221 217 211 217 222 223 217 216 217 216 209 195 197 207 212 217 220 222 222 216 216 214 207 206 207 208 207 212 202 195 201 223
242 229 217 211 209 207 207 211 219 222 226 228 227 224 223 224 225 220 217 216 215 210 210 211 215 217 219 219 219 218 219 216 206 204 208 208 206 207 208 213 214 220 233
253 239 227 219 215 213 212 213 213 214 218 226 228 228 227 225 223 219 217 210 214 213 212 215 218 219 218 218 218 219 221 215 206 207 208 207 203 202 209 216 217 222 234
265 252 238 228 219 217 212 211 213 214 220 220 211 223 225 224 221 220 214 209 211 215 217 219 219 218 218 218 218 217 215 213 207 202 208 206 204 202 214 218 221 238 238
274 261 250 239 225 219 215 214 215 216 218 219 220 217 205 207 212 212 211 211 215 220 220 221 220 218 217 218 215 213 215 215 212 211 211 208 204 203 213 217 219 225 232
284 274 260 249 235 224 219 218 217 216 217 220 222 213 202 205 212 213 213 215 218 222 221 220 218 216 217 215 213 213 214 216 213 210 210 208 202 206 212 215 219 223 228
282 276 268 259 247 236 230 222 218 218 219 222 223 217 216 211 213 217 219 220 221 221 217 215 218 217 214 212 212 212 214 216 213 209 208 206 204 207 208 213 219 222 227
278 278 275 266 256 249 244 229 221 219 221 221 217 209 210 213 215 218 221 221 217 217 213 211 217 218 214 214 211 208 211 213 209 202 201 202 203 205 207 213 217 222 229
275 274 274 271 263 254 247 238 228 222 221 220 215 212 211 214 218 220 219 216 214 214 211 211 217 219 214 212 214 215 217 216 208 202 195 197 199 203 206 214 220 225 232
274 272 270 266 264 260 254 246 236 226 221 218 214 212 211 213 217 219 215 213 212 214 213 211 215 218 219 216 214 215 220 220 212 204 197 195 199 201 206 215 222 228 231
273 272 270 265 259 255 253 248 237 227 221 217 213 210 209 211 214 214 211 211 213 216 216 214 216 218 219 220 222 222 224 225 222 212 199 194 198 207 209 219 222 229 234
Height
1501 1503 1505 1507 1508 1510 1512 1514 1514 1515 1514 1514 1513 1512 1511 1510 1508 1507 1507 1506 1506 1505 1505 1504 1504 1504 1503 1503 1503 1504 1504 1505 1506 1506 1507 1506 1507 1506 1506 1506 1505 1504 1504
1498 1499 1501 1503 1504 1506 1508 1510 1510 1510 1510 1509 1508 1507 1505 1504 1503 1503 1502 1502 1501 1501 1500 1500 1500 1500 1499 1499 1499 1500 1500 1501 1502 1502 1503 1503 1503 1503 1502 1502 1502 1501 1501
1495 1496 1497 1499 1501 1503 1504 1505 1506 1505 1505 1504 1503 1502 1500 1499 1499 1498 1498 1498 1498 1497 1497 1496 1496 1496 1496 1496 1496 1496 1496 1497 1498 1499 1499 1499 1499 1499 1499 1499 1499 1499 1499
1491 1492 1494 1496 1497 1499 1500 1500 1501 1501 1500 1499 1498 1497 1496 1495 1494 1494 1494 1494 1494 1494 1493 1493 1493 1493 1493 1493 1493 1493 1493 1493 1494 1495 1496 1496 1496 1496 1496 1496 1496 1496 1496
1487 1488 1490 1492 1493 1495 1495 1496 1496 1496 1495 1494 1493 1492 1491 1491 1490 1490 1490 1490 1490 1490 1490 1490 1490 1490 1490 1490 1490 1490 1490 1491 1491 1491 1492 1492 1493 1493 1493 1493 1493 1493 1493
1483 1484 1486 1488 1489 1490 1491 1492 1491 1491 1490 1489 1488 1488 1487 1487 1487 1487 1487 1487 1487 1487 1487 1487 1487 1487 1487 1487 1487 1487 1488 1488 1488 1488 1489 1489 1490 1490 1490 1490 1490 1490 1490
1478 1480 1481 1483 1485 1486 1487 1487 1487 1486 1485 1485 1484 1484 1484 1484 1484 1484 1484 1484 1484 1484 1485 1485 1485 1485 1485 1485 1485 1485 1485 1485 1486 1486 1486 1487 1487 1487 1487 1487 1487 1487 1487
1473 1474 1476 1478 1480 1481 1482 1482 1482 1481 1481 1481 1481 1480 1480 1480 1481 1481 1481 1481 1482 1482 1482 1482 1482 1483 1483 1483 1483 1483 1483 1483 1483 1483 1484 1484 1484 1485 1485 1485 1485 1485 1485
1467 1469 1471 1473 1474 1476 1476 1477 1477 1477 1477 1477 1477 1477 1477 1478 1478 1478 1478 1479 1479 1479 1480 1480 1480 1480 1481 1481 1481 1481 1481 1481 1481 1481 1481 1482 1482 1482 1482 1483 1483 1483 1483
1462 1464 1466 1468 1469 1470 1471 1472 1472 1472 1473 1473 1473 1474 1474 1475 1475 1475 1476 1476 1477 1477 1477 1478 1478 1478 1479 1478 1479 1479 1479 1479 1479 1479 1479 1479 1480 1480 1480 1480 1481 1481 1481
1458 1459 1460 1462 1463 1465 1466 1466 1467 1468 1468 1469 1469 1470 1471 1471 1472 1473 1473 1474 1474 1475 1475 1476 1476 1476 1476 1476 1476 1477 1477 1477 1477 1477 1477 1477 1477 1478 1478 1478 1478 1479 1479
1453 1454 1455 1456 1458 1459 1460 1461 1462 1463 1463 1464 1465 1466 1467 1468 1469 1470 1470 1471 1472 1472 1473 1474 1474 1474 1474 1474 1474 1474 1474 1474 1475 1475 1475 1475 1475 1476 1476 1476 1476 1476 1476
1448 1449 1450 1451 1452 1453 1454 1455 1456 1457 1458 1459 1460 1461 1463 1464 1465 1466 1467 1468 1469 1470 1470 1471 1471 1472 1472 1472 1472 1472 1472 1472 1472 1472 1472 1472 1473 1473 1473 1473 1473 1473 1473
1444 1444 1445 1446 1446 1448 1449 1450 1451 1452 1453 1454 1455 1457 1458 1460 1461 1462 1463 1464 1465 1466 1467 1468 1468 1469 1469 1469 1469 1469 1469 1469 1469 1469 1469 1469 1470 1470 1470 1470 1470 1470 1470
1439 1439 1439 1440 1441 1442 1443 1444 1445 1447 1448 1450 1451 1452 1454 1455 1457 1459 1459 1461 1462 1463 1464 1464 1464 1465 1465 1465 1466 1466 1466 1466 1465 1465 1465 1466 1466 1466 1466 1466 1466 1466 1466
1434 1434 1434 1435 1435 1436 1437 1439 1440 1442 1443 1444 1446 1447 1448 1451 1452 1453 1455 1456 1458 1459 1459 1459 1460 1461 1461 1461 1462 1462 1462 1462 1462 1461 1461 1461 1461 1462 1462 1462 1462 1462 1461
1429 1429 1429 1429 1430 1431 1432 1433 1434 1436 1437 1438 1440 1441 1443 1445 1447 1448 1450 1451 1453 1453 1453 1454 1455 1456 1456 1457 1457 1457 1457 1457 1457 1457 1457 1457 1457 1457 1457 1457 1457 1456 1456
1423 1423 1423 1423 1424 1425 1426 1427 1428 1429 1431 1432 1434 1436 1437 1439 1441 1443 1445 1446 1446 1447 1447 1448 1449 1450 1451 1451 1451 1452 1452 1452 1452 1451 1452 1452 1452 1451 1451 1451 1451 1451 1451
1417 1417 1417 1417 1418 1419 1420 1421 1422 1423 1424 1426 1428 1429 1431 1433 1435 1436 1438 1438 1439 1440 1441 1442 1443 1444 1444 1445 1445 1446 1446 1446 1446 1446 1446 1446 1446 1446 1446 1446 1446 1445 1445
1411 1411 1411 1411 1411 1412 1413 1414 1415 1416 1418 1419 1420 1422 1424 1426 1427 1428 1430 1431 1432 1433 1434 1435 1436 1437 1438 1438 1438 1439 1439 1439 1439 1439 1439 1439 1440 1440 1440 1440 1440 1439 1439
1405 1405 1404 1404 1405 1406 1406 1407 1409 1410 1411 1412 1413 1415 1417 1418 1419 1421 1422 1423 1424 1425 1426 1427 1428 1429 1430 1430 1431 1431 1431 1431 1432 1432 1433 1433 1433 1433 1433 1433 1433 1433 1433
1399 1399 1398 1398 1398 1399 1400 1401 1402 1403 1404 1405 1406 1408 1409 1410 1412 1413 1414 1415 1416 1417 1418 1419 1420 1420 1421 1422 1422 1423 1423 1424 1424 1425 1426 1426 1426 1427 1427 1427 1427 1427 1427
1394 1393 1392 1392 1392 1392 1393 1394 1395 1396 1397 1398 1400 1401 1402 1403 1404 1405 1406 1407 1408 1409 1410 1411 1411 1412 1413 1414 1414 1415 1415 1416 1417 1418 1418 1419 1419 1420 1420 1420 1421 1420 1420
1389 1388 1387 1386 1386 1386 1386 1387 1388 1389 1390 1391 1393 1394 1395 1396 1397 1398 1399 1400 1400 1401 1402 1403 1403 1404 1405 1405 1406 1407 1408 1409 1409 1410 1411 1412 1413 1413 1414 1414 1414 1414 1414
1383 1382 1381 1381 1380 1380 1380 1381 1382 1383 1384 1385 1386 1387 1388 1389 1390 1391 1392 1392 1393 1394 1394 1395 1395 1396 1396 1397 1398 1399 1400 1401 1402 1403 1404 1405 1406 1407 1407 1407 1407 1407 1407
1378 1377 1376 1376 1375 1375 1374 1375 1375 1376 1377 1378 1379 1380 1381 1382 1383 1384 1384 1385 1385 1386 1386 1387 1387 1388 1389 1390 1391 1392 1393 1394 1395 1396 1397 1399 1399 1400 1401 1401 1401 1400 1400